Weather History for Alexandria, Egypt

Change the Weather History Date:

Monday, May 27, 2013

  Actual Average Record
Temperature  
Mean Temperature 76 °F -  
Max Temperature 86 °F 81 °F 94 °F (2014)
Min Temperature 67 °F 68 °F 60 °F (2002)
Cooling Degree Days 12    
Growing Degree Days 26 (Base 50)    
Moisture  
Dew Point 60 °F    
Average Humidity 58    
Maximum Humidity 88    
Minimum Humidity 21    
Precipitation  
Precipitation 0.00 in 0.00 in - ()
Sea Level Pressure  
Sea Level Pressure 30.01 in    
Wind  
Wind Speed 6 mph ()    
Max Wind Speed 14 mph    
Max Gust Speed -    
Visibility 6.0 miles    
Events      
Averages and records for this station are not official NWS values.
T = Trace of Precipitation, MM = Missing Value Source: Averaged Metar Reports

Daily Weather History Graph

Daily Weather History Graph

Search for Another Location

Airport:

Trip Planner

Search our weather history database for the weather conditions in past years. The results will help you decide how hot, cold, wet, or windy it might be!

Date:

Astronomy

May. 27, 2013 Rise Set
Actual Time 4:58 AM EET 6:56 PM EET
Civil Twilight 4:31 AM EET 7:23 PM EET
Nautical Twilight 3:58 AM EET 7:56 PM EET
Astronomical Twilight 3:23 AM EET 8:32 PM EET
Moon 9:23 PM EET (5/27) 7:10 AM EET (5/27)
Length of Visible Light 14h 52m
Length of Day
13h 58m
Waning Gibbous, 93% of the Moon is Illuminated
May 27
Waning Gibbous
May 31
Last Quarter
Jun 8
New
Jun 16
First Quarter
Jun 23
Full

Hourly Weather History & Observations

Time (EET) Temp. Heat Index Dew Point Humidity Pressure Visibility Wind Dir Wind Speed Gust Speed Precip Events Conditions
12:00 AM 71.6 °F - 64.4 °F 78% 30.01 in - NW 8.1 mph - N/A   Clear
1:00 AM 71.6 °F - 64.4 °F 78% 29.98 in - NW 8.1 mph - N/A   Clear
2:00 AM 71 °F - 65 °F 76% 29.99 in 6 mi NW 6.9 mph - -  
2:00 AM 69.8 °F - 64.4 °F 83% 29.98 in - NW 6.9 mph - N/A   Clear
3:00 AM 69.8 °F - 64.4 °F 83% 29.98 in - WNW 2.3 mph - N/A   Clear
4:00 AM 69.8 °F - 64.4 °F 83% 29.95 in - WNW 4.6 mph - N/A   Clear
5:00 AM 68.0 °F - 64.4 °F 88% 29.98 in - West 2.3 mph - N/A   Clear
6:00 AM 68.0 °F - 64.4 °F 88% 29.98 in - Calm Calm - N/A   Clear
7:00 AM 71.6 °F - 64.4 °F 78% 30.01 in - WNW 4.6 mph - N/A   Clear
8:00 AM 78 °F - 63 °F 50% 30.01 in 6 mi NW 6.9 mph - -  
8:00 AM 78.8 °F - 62.6 °F 57% 30.01 in - NW 6.9 mph - N/A   Clear
9:00 AM 80.6 °F 82.3 °F 64.4 °F 58% 30.01 in - NW 8.1 mph - N/A   Clear
10:00 AM 80.6 °F 81.8 °F 62.6 °F 54% 30.04 in - NW 11.5 mph - N/A   Clear
11:00 AM 80.6 °F 81.8 °F 62.6 °F 54% 30.04 in - NW 13.8 mph - N/A   Clear
12:00 PM 82.4 °F 83.4 °F 62.6 °F 51% 30.04 in - NNW 11.5 mph - N/A   Clear
1:00 PM 84.2 °F 83.8 °F 59.0 °F 42% 30.04 in - North 11.5 mph - N/A   Clear
2:00 PM 85 °F - 51 °F 21% 30.03 in 6 mi North 9.2 mph - -  
2:00 PM 86.0 °F - 50.0 °F 29% 30.04 in - North 9.2 mph - N/A   Clear
3:00 PM 86.0 °F - 51.8 °F 31% 30.01 in - NW 11.5 mph - N/A   Clear
4:00 PM 86.0 °F - 50.0 °F 29% 30.01 in - NNW 8.1 mph - N/A   Clear
5:00 PM 84.2 °F - 51.8 °F 33% 30.01 in - NNW 9.2 mph - N/A   Clear
6:00 PM 80.6 °F 80.5 °F 55.4 °F 42% 30.01 in - NNW 9.2 mph - N/A   Clear
7:00 PM 77.0 °F - 60.8 °F 57% 30.04 in - North 8.1 mph - N/A   Clear
8:00 PM 75 °F - 58 °F 44% 30.04 in 6 mi North 8.1 mph - -  
8:00 PM 75.2 °F - 57.2 °F 53% 30.04 in - North 8.1 mph - N/A   Clear
9:00 PM 73.4 °F - 57.2 °F 57% 30.04 in - North 4.6 mph - N/A   Clear
10:00 PM 71.6 °F - 57.2 °F 60% 30.06 in - North 4.6 mph - N/A   Clear
11:00 PM 69.8 °F - 59.0 °F 68% 30.04 in - ESE 4.6 mph - N/A   Clear